Home > Weather > Rancho Cucamonga > Past weeks

Flag for USA Past Weather in Rancho Cucamonga, California, USA — Yesterday and Last 2 Weeks

Now
79 °F

Clear.


Feels Like: 79 °F
Forecast: 71 / 98 °F
Wind: 5 mph from South

Location: Ontario International Airport

Current Time: Jul 27, 2016 at 12:45:24 AM

Latest Report: Jul 26, 2016 at 11:53 PM


Visibility: 10 mi

Pressure: 29.84 "Hg

Humidity: 38%

Dew Point: 51 °F

Location of Rancho CucamongaLocation

Past Weather in Rancho Cucamonga — Graph

°F

Rancho Cucamonga Temperature Yesterday

Maximum temperature yesterday: 101 °F (at 2:53 PM)
Minimum temperature yesterday: 72 °F (at 2:53 AM)
Average temperature yesterday: 85 °F

High & Low Weather Summary for the Past Weeks

 TemperatureHumidityPressure
High108 °F (Jul 23, 1:53 PM)90% (Jul 14, 5:53 AM)30.00 "Hg (Jul 14, 5:53 AM)
Low62 °F (Jul 16, 4:53 AM)7% (Jul 23, 1:53 PM)29.71 "Hg (Jul 23, 1:53 PM)
Average81 °F44%29.88 "Hg
* Reported Jul 11 10:53 PM — Jul 26 10:53 PM, Rancho Cucamonga, Weather by CustomWeather, © 2016

Note: Actual official high and low records may vary slightly from our data, if they occured in-between our weather recording intervals... More about our weather records

Advertising

Rancho Cucamonga Weather History for the Previous 24 Hours

Scroll right to see more
 ConditionsComfort  
Time TempWeatherWind HumidityBarometerVisibility
10:53 PM
Tue, Jul 26
80 °FClear.5 mph26%29.84 "Hg10 mi
9:53 PM81 °FClear.9 mph27%29.84 "Hg10 mi
8:53 PM82 °FSunny.7 mph35%29.83 "Hg10 mi
7:53 PM86 °FPassing clouds.13 mph18%29.80 "Hg10 mi
6:53 PM90 °FPassing clouds.13 mph17%29.78 "Hg10 mi
5:53 PM95 °FPassing clouds.16 mph18%29.76 "Hg10 mi
4:53 PM99 °FPassing clouds.17 mph16%29.75 "Hg10 mi
3:53 PM100 °FPassing clouds.16 mph20%29.76 "Hg10 mi
2:53 PM101 °FPassing clouds.12 mph18%29.78 "Hg10 mi
1:53 PM100 °FPassing clouds.10 mph17%29.79 "Hg10 mi
12:53 PM98 °FPassing clouds.10 mph20%29.82 "Hg10 mi
11:53 AM94 °FPassing clouds.3 mph24%29.83 "Hg10 mi
10:53 AM91 °FPassing clouds.8 mph26%29.85 "Hg10 mi
9:53 AM85 °FPassing clouds.3 mph39%29.85 "Hg10 mi
8:53 AM81 °FPassing clouds.3 mph49%29.85 "Hg10 mi
7:53 AM78 °FPassing clouds.No wind54%29.86 "Hg10 mi
6:53 AM74 °FPassing clouds.No wind62%29.86 "Hg10 mi
5:53 AM72 °FPassing clouds.No wind66%29.85 "Hg10 mi
4:53 AM73 °FPassing clouds.No wind64%29.85 "Hg10 mi
3:53 AM73 °FPassing clouds.No wind62%29.85 "Hg10 mi
2:53 AM72 °FPassing clouds.No wind64%29.85 "Hg10 mi
1:53 AM74 °FPassing clouds.3 mph60%29.86 "Hg10 mi
12:53 AM75 °FPassing clouds.8 mph60%29.86 "Hg10 mi
Weather by CustomWeather, © 2016

See weather overviewHow to use our weather pages